FFA201 EGGD-EDDK

Flight info

Callsign FFA201
Flight time 1h 14m
Altitude 37000
Route HAWFA L607 KONAN UL607 SPI/N0390F230 T857 DENOV T861 ERUKI ERUKI1F
Aircraft A320/M-SDE3FGHIRWY/LB1

Departure

Time 2026-05-01 11:12
Airport Bristol Airport (EGGD)

Arrival

Time 2026-05-01 12:27
Airport Cologne Bonn Airport (EDDK)
Time Latitude Longitude Altitude Speed Heading
2026-05-01 10:40 51.38558 -2.71018 613 ft 0 kts 357°
2026-05-01 11:06 51.38546 -2.71017 628 ft 4 kts 357°
2026-05-01 11:06 51.38519 -2.71015 624 ft 4 kts 357°
2026-05-01 11:07 51.38468 -2.71026 621 ft 4 kts 44°
2026-05-01 11:07 51.38459 -2.71050 624 ft 0 kts 86°
2026-05-01 11:10 51.38461 -2.71015 618 ft 0 kts 86°
2026-05-01 11:10 51.38465 -2.70916 612 ft 18 kts 86°
2026-05-01 11:10 51.38473 -2.70685 612 ft 19 kts 88°
2026-05-01 11:10 51.38464 -2.70542 621 ft 4 kts 148°
2026-05-01 11:11 51.38457 -2.70534 618 ft 0 kts 141°
2026-05-01 11:11 51.38420 -2.70506 615 ft 14 kts 160°
2026-05-01 11:11 51.38331 -2.70527 612 ft 14 kts 230°
2026-05-01 11:11 51.38314 -2.70690 611 ft 18 kts 266°
2026-05-01 11:12 51.38293 -2.71249 622 ft 85 kts 266°
2026-05-01 11:12 51.38245 -2.72492 616 ft 136 kts 266°
2026-05-01 11:12 51.38196 -2.74093 993 ft 149 kts 267°
2026-05-01 11:12 51.38138 -2.75852 1452 ft 168 kts 266°
2026-05-01 11:13 51.38043 -2.77796 1967 ft 182 kts 264°
2026-05-01 11:13 51.37895 -2.79872 2471 ft 195 kts 263°
2026-05-01 11:13 51.37804 -2.82170 2740 ft 220 kts 265°
2026-05-01 11:13 51.37744 -2.84720 3273 ft 235 kts 265°
2026-05-01 11:14 51.37920 -2.87365 4126 ft 247 kts 288°
2026-05-01 11:14 51.38970 -2.89588 4993 ft 260 kts 322°
2026-05-01 11:14 51.40689 -2.90584 5720 ft 272 kts 357°
2026-05-01 11:14 51.42513 -2.89966 5951 ft 269 kts 33°
2026-05-01 11:15 51.43768 -2.87875 5989 ft 258 kts 70°
2026-05-01 11:15 51.44074 -2.85170 5987 ft 248 kts 95°
2026-05-01 11:15 51.44085 -2.82400 5988 ft 249 kts 95°
2026-05-01 11:15 51.44098 -2.79627 6005 ft 249 kts 94°
2026-05-01 11:16 51.44211 -2.76825 6015 ft 265 kts 82°
2026-05-01 11:16 51.45003 -2.74070 6008 ft 282 kts 54°
2026-05-01 11:16 51.46498 -2.71983 6006 ft 288 kts 39°
2026-05-01 11:16 51.48122 -2.70081 6007 ft 289 kts 39°
2026-05-01 11:17 51.49752 -2.68178 6008 ft 289 kts 39°
2026-05-01 11:17 51.51343 -2.66219 6004 ft 287 kts 47°
2026-05-01 11:17 51.52539 -2.63708 6003 ft 281 kts 67°
2026-05-01 11:17 51.53153 -2.60770 6189 ft 280 kts 86°
2026-05-01 11:18 51.53163 -2.57694 7161 ft 273 kts 100°
2026-05-01 11:18 51.52966 -2.54654 8116 ft 274 kts 100°
2026-05-01 11:18 51.52765 -2.51591 9022 ft 277 kts 100°
2026-05-01 11:18 51.52561 -2.48494 9899 ft 281 kts 100°
2026-05-01 11:19 51.52352 -2.45335 10527 ft 293 kts 100°
2026-05-01 11:19 51.52123 -2.41953 10774 ft 316 kts 100°
2026-05-01 11:19 51.51875 -2.38342 11179 ft 331 kts 100°
2026-05-01 11:19 51.51625 -2.34641 11851 ft 336 kts 100°
2026-05-01 11:20 51.51373 -2.30880 12567 ft 341 kts 100°
2026-05-01 11:20 51.51117 -2.27096 13255 ft 346 kts 100°
2026-05-01 11:20 51.50856 -2.23302 13941 ft 350 kts 101°
2026-05-01 11:20 51.50579 -2.19326 14560 ft 354 kts 100°
2026-05-01 11:21 51.50304 -2.15375 15186 ft 358 kts 100°
2026-05-01 11:21 51.50030 -2.11435 15796 ft 361 kts 100°
2026-05-01 11:21 51.49748 -2.07410 16408 ft 365 kts 100°
2026-05-01 11:21 51.49465 -2.03346 17000 ft 368 kts 100°
2026-05-01 11:22 51.49176 -1.99238 17633 ft 372 kts 100°
2026-05-01 11:22 51.48883 -1.95102 18253 ft 375 kts 100°
2026-05-01 11:22 51.48584 -1.90922 18797 ft 379 kts 100°
2026-05-01 11:22 51.48280 -1.86704 19352 ft 382 kts 101°
2026-05-01 11:23 51.47973 -1.82467 19912 ft 385 kts 100°
2026-05-01 11:23 51.47662 -1.78191 20465 ft 388 kts 100°
2026-05-01 11:23 51.47348 -1.73879 21004 ft 391 kts 100°
2026-05-01 11:23 51.47033 -1.69586 21510 ft 394 kts 100°
2026-05-01 11:24 51.46555 -1.65185 22023 ft 395 kts 106°
2026-05-01 11:24 51.45964 -1.60865 22516 ft 398 kts 106°
2026-05-01 11:24 51.44776 -1.52172 23496 ft 404 kts 105°
2026-05-01 11:25 51.44165 -1.47690 23938 ft 408 kts 105°
2026-05-01 11:25 51.42953 -1.38830 24795 ft 412 kts 106°
2026-05-01 11:25 51.42336 -1.34341 25214 ft 414 kts 106°
2026-05-01 11:26 51.41714 -1.29827 25634 ft 416 kts 106°
2026-05-01 11:26 51.40444 -1.20731 26440 ft 421 kts 106°
2026-05-01 11:26 51.39806 -1.16140 26832 ft 424 kts 104°
2026-05-01 11:27 51.39447 -1.11431 27208 ft 430 kts 98°
2026-05-01 11:27 51.39209 -1.06642 27592 ft 432 kts 98°
2026-05-01 11:27 51.38968 -1.01832 27983 ft 435 kts 98°
2026-05-01 11:27 51.38722 -0.97000 28375 ft 437 kts 98°
2026-05-01 11:28 51.38468 -0.92140 28795 ft 439 kts 98°
2026-05-01 11:28 51.38211 -0.87275 29212 ft 440 kts 98°
2026-05-01 11:28 51.37952 -0.82369 29605 ft 442 kts 98°
2026-05-01 11:29 51.37428 -0.72516 30331 ft 447 kts 98°
2026-05-01 11:29 51.37161 -0.67546 30648 ft 449 kts 98°
2026-05-01 11:29 51.36616 -0.57568 31471 ft 449 kts 98°
2026-05-01 11:30 51.36340 -0.52598 31942 ft 448 kts 98°
2026-05-01 11:30 51.36062 -0.47645 32410 ft 446 kts 98°
2026-05-01 11:30 51.35784 -0.42699 32870 ft 445 kts 98°
2026-05-01 11:30 51.35505 -0.37772 33332 ft 444 kts 98°
2026-05-01 11:31 51.35226 -0.32856 33800 ft 444 kts 98°
2026-05-01 11:31 51.34946 -0.27949 34258 ft 443 kts 98°
2026-05-01 11:31 51.34661 -0.23034 34652 ft 442 kts 98°
2026-05-01 11:31 51.34376 -0.18151 35027 ft 441 kts 98°
2026-05-01 11:32 51.34089 -0.13262 35388 ft 441 kts 98°
2026-05-01 11:32 51.33801 -0.08382 35741 ft 440 kts 98°
2026-05-01 11:32 51.33509 -0.03515 36091 ft 440 kts 98°
2026-05-01 11:32 51.33214 0.01349 36429 ft 439 kts 98°
2026-05-01 11:33 51.32892 0.06212 36789 ft 438 kts 100°
2026-05-01 11:33 51.32503 0.10970 37072 ft 437 kts 101°
2026-05-01 11:33 51.32050 0.15786 37147 ft 439 kts 102°
2026-05-01 11:34 51.31061 0.25426 37137 ft 440 kts 102°
2026-05-01 11:34 51.30092 0.35082 37125 ft 440 kts 102°
2026-05-01 11:35 51.29161 0.44755 37123 ft 440 kts 102°
2026-05-01 11:35 51.28230 0.54423 37130 ft 439 kts 102°
2026-05-01 11:36 51.27290 0.64061 37140 ft 439 kts 102°
2026-05-01 11:36 51.26502 0.72062 37161 ft 439 kts 102°
2026-05-01 11:37 51.25543 0.81713 37187 ft 439 kts 102°
2026-05-01 11:37 51.24417 0.92894 37216 ft 439 kts 102°
2026-05-01 11:38 51.23597 1.00961 37225 ft 439 kts 102°
2026-05-01 11:38 51.22618 1.10532 37233 ft 439 kts 102°
2026-05-01 11:39 51.21636 1.20072 37237 ft 439 kts 102°
2026-05-01 11:39 51.20640 1.29685 37240 ft 439 kts 102°
2026-05-01 11:40 51.19636 1.39269 37244 ft 439 kts 102°
2026-05-01 11:40 51.18618 1.48874 37238 ft 438 kts 103°
2026-05-01 11:41 51.17598 1.58451 37247 ft 438 kts 103°
2026-05-01 11:41 51.16570 1.68036 37248 ft 438 kts 103°
2026-05-01 11:42 51.15538 1.77607 37243 ft 438 kts 103°
2026-05-01 11:42 51.14495 1.87170 37242 ft 438 kts 103°
2026-05-01 11:43 51.13435 1.96729 37231 ft 438 kts 103°
2026-05-01 11:43 51.12741 2.06333 37237 ft 440 kts 97°
2026-05-01 11:44 51.11964 2.20901 37239 ft 440 kts 98°
2026-05-01 11:44 51.11427 2.30605 37238 ft 440 kts 98°
2026-05-01 11:45 51.10892 2.40297 37232 ft 440 kts 98°
2026-05-01 11:45 51.10353 2.49991 37239 ft 439 kts 98°
2026-05-01 11:46 51.09794 2.59671 37240 ft 439 kts 98°
2026-05-01 11:46 51.08766 2.69134 37243 ft 435 kts 109°
2026-05-01 11:47 51.07087 2.78370 37244 ft 435 kts 109°
2026-05-01 11:47 51.05407 2.87618 37251 ft 435 kts 108°
2026-05-01 11:48 51.03725 2.96847 37253 ft 435 kts 108°
2026-05-01 11:48 51.02034 3.06070 37252 ft 435 kts 108°
2026-05-01 11:49 51.00339 3.15281 37249 ft 435 kts 109°
2026-05-01 11:49 50.98635 3.24474 37249 ft 435 kts 109°
2026-05-01 11:50 50.96917 3.33681 37234 ft 435 kts 108°
2026-05-01 11:50 50.95201 3.42826 37231 ft 435 kts 108°
2026-05-01 11:51 50.93472 3.52036 37240 ft 436 kts 108°
2026-05-01 11:51 50.91730 3.61241 37250 ft 436 kts 109°
2026-05-01 11:52 50.89973 3.70451 37253 ft 436 kts 109°
2026-05-01 11:52 50.88200 3.79654 37260 ft 436 kts 108°
2026-05-01 11:53 50.86414 3.88845 37263 ft 437 kts 109°
2026-05-01 11:53 50.84621 3.98047 37271 ft 438 kts 109°
2026-05-01 11:54 50.82816 4.07255 37272 ft 438 kts 109°
2026-05-01 11:54 50.81002 4.16453 37282 ft 438 kts 109°
2026-05-01 11:55 50.79199 4.25606 37281 ft 438 kts 109°
2026-05-01 11:55 50.77380 4.34791 37294 ft 438 kts 109°
2026-05-01 11:56 50.75551 4.43972 37298 ft 438 kts 109°
2026-05-01 11:56 50.73713 4.53133 37293 ft 438 kts 109°
2026-05-01 11:57 50.71867 4.62287 37299 ft 438 kts 109°
2026-05-01 11:57 50.70079 4.71484 37285 ft 438 kts 108°
2026-05-01 11:58 50.68318 4.80693 37279 ft 439 kts 109°
2026-05-01 11:58 50.66527 4.89900 36785 ft 442 kts 108°
2026-05-01 11:59 50.65611 4.94541 36043 ft 445 kts 109°
2026-05-01 11:59 50.64666 4.99197 35312 ft 447 kts 109°
2026-05-01 11:59 50.63698 5.03876 34500 ft 451 kts 109°
2026-05-01 12:00 50.61728 5.13282 32876 ft 454 kts 109°
2026-05-01 12:00 50.60751 5.17973 32350 ft 448 kts 109°
2026-05-01 12:00 50.58832 5.27251 31213 ft 441 kts 109°
2026-05-01 12:01 50.57884 5.31819 30651 ft 437 kts 109°
2026-05-01 12:01 50.56938 5.36346 30039 ft 434 kts 109°
2026-05-01 12:01 50.55999 5.40825 29480 ft 428 kts 109°
2026-05-01 12:01 50.55075 5.45243 28925 ft 423 kts 109°
2026-05-01 12:02 50.54163 5.49599 28378 ft 417 kts 109°
2026-05-01 12:02 50.53258 5.53907 27842 ft 413 kts 109°
2026-05-01 12:02 50.52511 5.58231 27313 ft 408 kts 100°
2026-05-01 12:02 50.52278 5.62591 26808 ft 404 kts 89°
2026-05-01 12:03 50.52562 5.66954 26308 ft 400 kts 79°
2026-05-01 12:03 50.53333 5.71184 25814 ft 396 kts 72°
2026-05-01 12:03 50.54205 5.75275 25324 ft 392 kts 72°
2026-05-01 12:03 50.55049 5.79266 24870 ft 389 kts 72°
2026-05-01 12:04 50.55896 5.83291 24405 ft 386 kts 72°
2026-05-01 12:04 50.56734 5.87290 23952 ft 384 kts 72°
2026-05-01 12:04 50.57565 5.91271 23444 ft 381 kts 72°
2026-05-01 12:04 50.58389 5.95210 22989 ft 377 kts 72°
2026-05-01 12:05 50.59205 5.99115 22540 ft 372 kts 73°
2026-05-01 12:05 50.60799 6.06784 21603 ft 365 kts 73°
2026-05-01 12:05 50.61578 6.10573 21133 ft 362 kts 73°
2026-05-01 12:06 50.62349 6.14330 20664 ft 359 kts 73°
2026-05-01 12:06 50.63095 6.18062 20196 ft 355 kts 78°
2026-05-01 12:06 50.63492 6.21865 19735 ft 350 kts 88°
2026-05-01 12:06 50.63433 6.25675 19267 ft 346 kts 96°
2026-05-01 12:07 50.63240 6.29450 18795 ft 345 kts 97°
2026-05-01 12:07 50.63051 6.33207 18275 ft 344 kts 96°
2026-05-01 12:07 50.62866 6.36891 17790 ft 341 kts 96°
2026-05-01 12:07 50.62678 6.40606 17286 ft 339 kts 97°
2026-05-01 12:08 50.62488 6.44301 16787 ft 337 kts 97°
2026-05-01 12:08 50.62297 6.47964 16288 ft 335 kts 97°
2026-05-01 12:08 50.62108 6.51602 15792 ft 333 kts 97°
2026-05-01 12:08 50.61914 6.55271 15294 ft 331 kts 97°
2026-05-01 12:09 50.61720 6.58826 14809 ft 330 kts 97°
2026-05-01 12:09 50.61525 6.62425 14314 ft 329 kts 97°
2026-05-01 12:09 50.61336 6.66020 13784 ft 329 kts 96°
2026-05-01 12:09 50.61585 6.69587 13268 ft 332 kts 74°
2026-05-01 12:10 50.62752 6.72725 12768 ft 337 kts 50°
2026-05-01 12:10 50.67080 6.75539 11541 ft 353 kts
2026-05-01 12:10 50.69544 6.75638 11022 ft 353 kts
2026-05-01 12:11 50.74365 6.75762 10488 ft 336 kts
2026-05-01 12:11 50.76659 6.75823 10367 ft 325 kts
2026-05-01 12:11 50.78883 6.75892 10229 ft 315 kts
2026-05-01 12:12 50.81059 6.75967 9933 ft 311 kts
2026-05-01 12:12 50.83211 6.76046 9356 ft 307 kts
2026-05-01 12:12 50.85318 6.76122 8742 ft 305 kts
2026-05-01 12:12 50.87438 6.76193 8070 ft 305 kts
2026-05-01 12:13 50.89549 6.76262 7526 ft 301 kts
2026-05-01 12:13 50.91620 6.76330 7012 ft 295 kts
2026-05-01 12:13 50.93633 6.76801 6491 ft 291 kts 19°
2026-05-01 12:13 50.95466 6.77992 6363 ft 279 kts 29°
2026-05-01 12:14 50.97188 6.79289 6291 ft 269 kts 28°
2026-05-01 12:14 50.98876 6.80496 6089 ft 266 kts 22°
2026-05-01 12:14 51.00754 6.81061 5373 ft 285 kts
2026-05-01 12:14 51.02714 6.80586 4608 ft 303 kts 341°
2026-05-01 12:15 51.04643 6.78913 3758 ft 318 kts 319°
2026-05-01 12:15 51.06060 6.76209 3201 ft 319 kts 296°
2026-05-01 12:15 51.06768 6.72963 3039 ft 306 kts 276°
2026-05-01 12:15 51.06744 6.69699 3014 ft 287 kts 255°
2026-05-01 12:16 51.06099 6.66819 3015 ft 267 kts 236°
2026-05-01 12:16 51.05024 6.64589 3006 ft 243 kts 218°
2026-05-01 12:16 51.03721 6.63076 3008 ft 222 kts 203°
2026-05-01 12:16 51.02336 6.62249 3012 ft 204 kts 185°
2026-05-01 12:17 51.00976 6.62265 3002 ft 193 kts 165°
2026-05-01 12:17 50.99759 6.63006 3010 ft 186 kts 147°
2026-05-01 12:17 50.98807 6.64306 3007 ft 179 kts 129°
2026-05-01 12:17 50.98189 6.66007 3005 ft 179 kts 112°
2026-05-01 12:18 50.97956 6.67934 3009 ft 182 kts 94°
2026-05-01 12:18 50.98148 6.69933 3007 ft 187 kts 76°
2026-05-01 12:18 50.98640 6.71857 3013 ft 188 kts 72°
2026-05-01 12:18 50.99132 6.73769 3010 ft 186 kts 73°
2026-05-01 12:19 50.99618 6.75666 3009 ft 185 kts 74°
2026-05-01 12:19 51.00104 6.77584 3011 ft 188 kts 73°
2026-05-01 12:19 51.00592 6.79514 3008 ft 188 kts 73°
2026-05-01 12:19 51.01080 6.81431 3014 ft 188 kts 73°
2026-05-01 12:20 51.01572 6.83361 3008 ft 189 kts 73°
2026-05-01 12:20 51.02062 6.85273 3030 ft 180 kts 73°
2026-05-01 12:20 51.02503 6.87017 3022 ft 160 kts 78°
2026-05-01 12:20 51.02684 6.88654 3026 ft 145 kts 95°
2026-05-01 12:21 51.02596 6.90188 3022 ft 136 kts 108°
2026-05-01 12:21 51.02291 6.91582 3023 ft 132 kts 121°
2026-05-01 12:21 51.01726 6.92694 3056 ft 129 kts 134°
2026-05-01 12:21 51.01111 6.93723 3041 ft 129 kts 135°
2026-05-01 12:22 51.00471 6.94728 3038 ft 130 kts 136°
2026-05-01 12:22 51.00046 6.95376 3037 ft 129 kts 137°
2026-05-01 12:22 50.99176 6.96676 3027 ft 128 kts 137°
2026-05-01 12:22 50.98518 6.97646 2956 ft 129 kts 137°
2026-05-01 12:23 50.97869 6.98599 2827 ft 127 kts 137°
2026-05-01 12:23 50.97440 6.99228 2744 ft 127 kts 137°
2026-05-01 12:23 50.96793 7.00174 2582 ft 127 kts 137°
2026-05-01 12:23 50.96141 7.01125 2417 ft 128 kts 137°
2026-05-01 12:24 50.95483 7.02085 2247 ft 128 kts 137°
2026-05-01 12:24 50.94831 7.03035 2082 ft 127 kts 137°
2026-05-01 12:24 50.94172 7.03995 1909 ft 130 kts 139°
2026-05-01 12:24 50.93514 7.04954 1736 ft 127 kts 138°
2026-05-01 12:25 50.92859 7.05908 1557 ft 128 kts 138°
2026-05-01 12:25 50.91570 7.07783 1205 ft 125 kts 137°
2026-05-01 12:25 50.90921 7.08732 1020 ft 128 kts 137°
2026-05-01 12:26 50.90267 7.09683 839 ft 130 kts 136°
2026-05-01 12:26 50.88955 7.11611 478 ft 127 kts 136°
2026-05-01 12:26 50.88305 7.12550 358 ft 127 kts 137°
2026-05-01 12:27 50.87647 7.13489 251 ft 122 kts 137°
2026-05-01 12:27 50.86970 7.14462 258 ft 31 kts 138°
2026-05-01 12:28 50.86877 7.14392 258 ft 1 kts 238°
2026-05-01 12:28 50.86879 7.14383 259 ft 3 kts 279°
2026-05-01 12:28 50.86919 7.14109 251 ft 19 kts 292°
2026-05-01 12:29 50.87011 7.13951 248 ft 21 kts 320°
2026-05-01 12:29 50.87131 7.13777 244 ft 25 kts 317°
2026-05-01 12:29 50.87361 7.13444 237 ft 25 kts 316°
2026-05-01 12:30 50.87591 7.13110 231 ft 21 kts 317°